Regional Weather Roundup
Issued by NWS Grand Forks, ND

Home | Current Version | Previous Version | Graphics & Text | Print | Product List | Glossary On
Versions: 1 2 3 4 5 6 7 8 9 10 11 12 13 14 15 16 17 18 19 20 21 22 23 24 25 26 27 28 29 30 31 32 33 34 35 36 37 38 39 40 41 42 43 44 45 46 47 48 49 50
000
ASUS43 KFGF 310510
RWRFGF
PRAIRIE TO PINES  WEATHER ROUNDUP
NATIONAL WEATHER SERVICE EASTERN NORTH DAKOTA/GRAND FORKS ND
1200 AM CDT TUE MAY 31 2016

 **SATELLITE DATA USED TO AUGMENT SKY COVER AT AUTOMATED STATIONS**
 *****  WEATHER ACROSS EASTERN NORTH DAKOTA  *****

CITY           SKY/WX    TMP DP  RH WIND       PRES   REMARKS
GRAND FORKS    RAIN      60  56  86 E20       29.79F
GRAND FRKS AFB LGT RAIN  59  57  94 E17G23    29.78F
GRAND FRKS NWS   N/A     57 N/A N/A E12         N/A
DEVILS LAKE    LGT RAIN  59  54  83 E15G22    29.76F
FARGO          RAIN      62  58  86 NW17      29.77R FOG
WAHPETON ARPT  CLOUDY    59  54  82 NW12G17   29.80R
$$

 ***** WEATHER ACROSS CENTRAL AND WESTERN NORTH DAKOTA  *****

CITY           SKY/WX    TMP DP  RH WIND       PRES   REMARKS
BISMARCK       CLOUDY    56  54  93 NW9       29.82F
MINOT          RAIN      58  54  86 NW9       29.84F
JAMESTOWN      CLOUDY    58  56  93 SW8       29.75R
MINOT AFB      NOT AVBL
GARRISON         N/A     55  53  93 NW8       29.85F
WILLISTON      LGT RAIN  53  50  89 NW9       29.89F
DICKINSON      MOCLDY    49  46  90 W17       29.88F
HETTINGER      CLEAR     48  45  89 W13       29.94S
$$

 *****  OTHER AIRPORT OBSERVATIONS IN OUR AREA  *****

CITY           SKY/WX    TMP DP  RH WIND       PRES   REMARKS
WALHALLA       FAIR      61  57  88 E7        29.82F
GRAFTON AIRPOR FAIR      61  59  94 E15       29.81F
VALLEY CITY AR LGT RAIN  55  55 100 E13       29.74F
CANDO          NOT AVBL
CAVALIER APRT  CLOUDY    63  55  77 E10       29.81F
GWINNER        CLOUDY    59  59 100 NE8       29.74F
SHEYENNE NWR     N/A     58  57  95 N5        29.95S
ROLLA          CLOUDY    57  57 100 CALM      29.83S
 ***** THE ABOVE OBSERVATIONS ARE NON NWS ARE NOT QUALITY
       CONTROLLED AND MAY MIS-REPORT RAIN FOR SNOW...
$$

  *****  WEATHER ACROSS NORTHERN MINNESOTA  *****

CITY           SKY/WX    TMP DP  RH WIND       PRES   REMARKS
FLAG ISLAND    CLOUDY    61  48  63 E13G20    29.93F
WARROAD        CLOUDY    63  55  77 E13G21    29.92F
ROSEAU         CLOUDY    63  55  77 E14G20    29.88F
HALLOCK        CLOUDY    63  59  88 E9        29.83F
THF RVR FALLS  CLOUDY    59  54  82 NE3       29.87F THUNDER
BAUDETTE       PTCLDY    60  49  66 E16       29.92F
WASKISH        CLOUDY    64  50  59 E15G22    29.89F
CROOKSTON      RAIN      57  57 100 NE13      29.84S
STEPHEN NDAWN    N/A     61  59  94 E7          N/A
GREENBUSH NDAW   N/A     63  55  77 NE7         N/A
$$
  *****  WEATHER ACROSS CENTRAL AND WEST MINNESOTA  *****

CITY           SKY/WX    TMP DP  RH WIND       PRES   REMARKS
FOSSTON        CLOUDY    64  54  68 E14G20    29.78F
BEMIDJI        RAIN      61  55  81 SE15G23   29.87F
PARK RAPIDS    LGT RAIN  65  55  70 E7        29.82F
ELBOW LAKE     FAIR      69  56  63 SE14      29.75F
WADENA         CLOUDY    70  52  52 SE24G30   29.81F
DETROIT LAKES  CLOUDY    68  54  60 SE17      29.77F
MOORHEAD       CLOUDY    61  59  94 W17       29.77R
FERGUS FALLS   CLOUDY    72  54  53 W17G24    29.78R
MORRIS MN      CLOUDY    70  57  64 SE15G21   29.74F
STAPLES        CLOUDY    68  52  56 SE8       29.86R
$$
  *****  WEATHER ELSEWHERE ACROSS MINNESOTA  *****

CITY           SKY/WX    TMP DP  RH WIND       PRES   REMARKS
DULUTH         MOCLDY    61  45  55 E21G28    29.98R
INTRNTL FALLS  CLOUDY    59  48  67 E13       29.97F
ELY            CLOUDY    59  46  63 E13       30.02S
CLOQUET        CLOUDY    61  45  55 E7        29.95F
WHEATON        CLOUDY    68  55  64 NW9G17    29.80R
BRAINERD       PTCLDY    66  54  65 VRB6      29.86F
HIBBING        CLOUDY    64  45  49 SE8       29.95F
ALEXANDRIA     CLOUDY    67  55  65 E10       29.81F
SAINT CLOUD    PTCLDY    72  51  47 SE13G18   29.84F
MINNEAPOLIS    CLOUDY    73  55  53 S10       29.89S
$$

  *****  WEATHER ACROSS SOUTH DAKOTA  *****

CITY           SKY/WX    TMP DP  RH WIND       PRES   REMARKS
SIOUX FALLS    CLOUDY    69  59  70 S12G25    29.78R THUNDER
BROOKINGS      TSTM      69  60  73 W21G29    29.80R
WATERTOWN      TSTM      62  59  90 NW14      29.80R FOG
HURON          CLOUDY    62  57  83 W15G23    29.77F
SISSETON         N/A     62  57  83 NW12G25   29.77S
ABERDEEN       CLOUDY    58  56  93 SW3       29.79R
MITCHELL       CLOUDY    67  57  70 SW13      29.81R
PIERRE         CLOUDY    58  54  86 W15       29.87S
MOBRIDGE       CLOUDY    57  52  83 W10       29.83R
RAPID CITY     CLEAR     51  42  71 NW17      30.04R
$$

  *****  SOME WEATHER IN NEARBY STATES *****

CITY           SKY/WX    TMP DP  RH WIND       PRES   REMARKS
GLASGOW MT     MOCLDY    48  42  80 W12       29.93F
GREAT FALLS MT CLOUDY    47  40  76 N5        30.21R
CHEYENNE WY    CLOUDY    49  44  83 N15       30.13R
SCOTTSBLUFF NE CLOUDY    55  46  71 NW6       30.10R
OMAHA NE       CLOUDY    68  62  81 S14       29.90F
DES MOINES IA  MOCLDY    69  56  62 SE6       29.94R
DAVENPORT IA   CLEAR     72  61  68 S3        29.97S
CHICAGO IL     PTCLDY    69  54  58 NE6       29.99S
EAU CLAIRE WI  CLOUDY    64  57  78 CALM      29.94S
LA CROSSE WI   LGT RAIN  70  58  65 SE10      29.96R
$$

  *****  SOME NATIONAL WEATHER *****

CITY           SKY/WX    TMP DP  RH WIND       PRES   REMARKS
LA GUARDIA NY  CLOUDY    74  72  93 SW6       29.93F
RALEIGH NC     LGT RAIN  71  69  93 CALM      29.95F
ATLANTA GA     CLOUDY    77  61  57 NW7       29.95F
NEW ORLEANS LA PTCLDY    76  70  82 S3        29.96S
OKLAHOMA CITY  CLOUDY    69  67  93 SE9       29.92F
ALBUQUERQUE NM CLOUDY    71  32  23 SE5       30.01R
SALT LAKE CITY PTCLDY    66  41  40 SE5       30.05R
LOS ANGELES CA MOCLDY    61  55  81 W12       29.92S
BOISE ID       PTCLDY    64  31  28 CALM      30.08R
SEATTLE WA     PTCLDY    62  44  51 N7        30.21R
$$

*** WEATHER ACROSS MANITOBA...SASKATCHEWAN AND ONTARIO ***
                ***ONTARIO***

CITY           SKY/WX    TMP DP  RH WIND       PRES   REMARKS
GERALDTON      CLEAR     43  39  87 NW5       30.11R
THUNDER BAY    CLEAR     48  43  81 NE3       30.12R
SIOUX LOOKOUT  CLEAR     50  46  87 E5        30.08S
TORONTO        CLEAR     66  52  59 N7        29.96F
BIG TROUT LK   PTCLDY    39  30  70 NE7       30.20R
PICKLE LAKE    NOT AVBL
DRYDEN         CLOUDY    52  45  76 E8        30.05S
KENORA         MOCLDY    55  46  71 E13G22    29.99F
$$
                *** MANITOBA***

CITY           SKY/WX    TMP DP  RH WIND       PRES   REMARKS
BRANDON        NOT AVBL
DAUPHIN        CLOUDY    57  54  88 NE8       29.95R
ISLAND LAKE    PTCLDY    46  36  66 E9        30.15S
PILOT MOUND      N/A     59  55  88 SE5         N/A
THE PAS        CLOUDY    54  46  76 E5        30.10S
THOMPSON       PTCLDY    46  36  66 NE7       30.19R
WINNIPEG       MOCLDY    63  52  67 E16G24    29.88F
LYNN LAKE      CLOUDY    45  41  87 NE5       30.18F
CHURCHILL      PTCLDY    28  25  86 E10       30.40S WCI  19
GILLAM         CLEAR     32  27  80 E10       30.29R WCI  24
$$
                ***SASKATCHEWAN***

CITY           SKY/WX    TMP DP  RH WIND       PRES   REMARKS
ESTEVAN        LGT RAIN  52  52 100 N10       29.87F
KINDERSLEY     CLOUDY    52  50  93 N18G25    30.06R
LLOYDMINSTER   CLOUDY    50  48  93 NW9       30.12R
PRINCE ALBERT  PTCLDY    48  45  87 E8        30.04R
REGINA         LGT RAIN  54  52  94 E9        29.93F
YORKTON        CLOUDY    57  50  77 NE10      29.95S
N. BATTLEFORD  CLOUDY    55  48  76 N9        30.07R
LA RONGE       CLOUDY    52  48  87 N8        30.11S
SASKATOON      PTCLDY    52  46  82 NE7       30.03S
SWIFT CURRENT  LGT RAIN  50  50 100 N13       29.96R
$$
NOTE: THESE ARE AUTOMATED STATIONS WITH LIMITED QUALITY CONTROL
      "FAIR" INDICATES FEW OR NO CLOUDS BELOW 12,000 FEET WITH NO
      SIGNIFICANT WEATHER AND/OR OBSTRUCTIONS TO VISIBILITY.
      SKY/WX - SKY CONDITION AND SIGNIFICANT WEATHER.
      TMP - AIR TEMPERATURE.    DP   - DEWPOINT TEMPERATURE.
      RH  - RELATIVE HUMIDITY.  PRES - PRESSURE.
      HX  - HEAT INDEX.         WCI  - WIND CHILL INDEX.
$



USA.gov is the U.S. government's official web portal to all federal, state and local government web resources and services.